Overview Statistics Trail Chart Weather Telemetry Raw packets
 

This is the latest recevied weather packets stored in our database for station/object KB9HUO. If no packets are shown the sender has not sent any weather packets the latest 10 day(s).

<< 107 108 109 110 111 112 113 >>
Time Temp. Humidity Pressure Rain* Wind** Luminosity Snow
1787843937 23.89° C 85% 1017.3 hPa 0 mm - 96 W/m² -
1787843632 23.89° C 86% 1017.5 hPa 0 mm - 87 W/m² -
1787843329 23.33° C 87% 1017.3 hPa 0 mm - 71 W/m² -
1787843024 23.33° C 90% 1017.3 hPa 0 mm - 96 W/m² -
1787842723 22.78° C 93% 1017.1 hPa 0 mm - 69 W/m² -
1787842419 22.78° C 95% 1017.2 hPa 0 mm - 67 W/m² -
1787842119 22.78° C 96% 1016.9 hPa 0 mm - 116 W/m² -
1787841817 22.22° C 97% 1017.1 hPa 0 mm - 75 W/m² -
1787841510 21.67° C 98% 1017 hPa 0 mm - 78 W/m² -
1787841209 21.67° C 98% 1016.9 hPa 0 mm - 66 W/m² -
1787840904 21.11° C 98% 1017 hPa 0 mm - 64 W/m² -
1787840600 21.11° C 98% 1017.1 hPa 0 mm - 66 W/m² -
1787840295 21.11° C 98% 1017 hPa 0 mm - 78 W/m² -
1787839995 21.11° C 99% 1017 hPa 0 mm - 74 W/m² -
1787839694 20.56° C 98% 1017.1 hPa 0 mm - 87 W/m² -
1787839389 20.56° C 99% 1017.1 hPa 0 mm - 85 W/m² -
1787839089 20.56° C 99% 1017 hPa 0 mm - 109 W/m² -
1787838788 20.56° C 99% 1017.1 hPa 0 mm - 127 W/m² -
1787838483 20° C 99% 1017 hPa 0 mm - 125 W/m² -
1787838177 20° C 99% 1016.8 hPa 0 mm - 114 W/m² -
1787837871 20° C 99% 1016.9 hPa 0 mm - 109 W/m² -
1787837570 20° C 99% 1016.9 hPa 0 mm - 89 W/m² -
1787837270 20° C 99% 1016.9 hPa 0 mm - 93 W/m² -
1787836965 20° C 99% 1017 hPa 0 mm - 69 W/m² -
1787836665 20° C 99% 1016.9 hPa 0 mm - 58 W/m² -

* Rain latest hour (hover to see other rain measurements)
** Current wind speed in m/s (hover to see current wind gust speed)